www.pogodaiklimat.ru

Погода и климат >> Архив погоды >> Аргентина >> Las Flores


ПОГОДА в Las Flores

  • Прогноз погоды в Las Flores
  • Монитор погоды в Las Flores
  • Климат города

АРХИВ ПОГОДЫ в Las Flores

Время (UTC), дата Ветер
(напр.,м/с)
 
Видим.   Явления Облачность Т
(С)
Тd
(С)
f
(%)
Тe
(С)
Тes
(С)
Комфортность P
(гПа)
Po
(гПа)
Тmin
(С)
Tmax
(С)
R
(мм)
S
(см)
09 21.03 штиль 0 15 км 6/0
[Ac trans]
+15.2 +14.0 93 +15 +15 1023.8 1019.4
12 21.03 С 2 500 м туман 8/3 750 м
[Sc diur, vesp Ac trans]
+16.5 +14.1 86 +17 +18 1024.8 1020.5 +15.1 +18.8
15 21.03 С 3 15 км {туман} 8/5 750 м
[Cu hum Ci]
+23.5 +14.3 56 +26 +31 жарко 1023.9 1019.6
18 21.03 С 3 15 км 6/4 750 м
[Cu hum Ci]
+25.7 +10.7 39 +27 +31 жарко 1022.0 1017.7
21 21.03 СВ 1 15 км 9/4 750 м
[Cu hum Ci]
+23.9 +13.0 50 +26 +26 жарко 1020.5 1016.2
00 22.03 СВ 2 15 км ясно +19.7 +15.0 74 +22 +22 комфорт 1020.5 1016.2 +16.4 +26.2
09 22.03 СВ 2 15 км 8/8 750 м
[Sc diur, vesp]
+17.2 +15.2 88 +17 +17 1019.9 1015.7
12 22.03 СВ 3 15 км 8/5 750 м
[Frnb Ci]
+18.0 +15.5 85 +18 +19 1021.1 1016.8 +17.0 +19.7
15 22.03 СВ 2 15 км 8/5 750 м
[Sc diur, vesp Ac trans]
+24.6 +17.5 65 +29 +33 душно 1021.6 1017.4
18 22.03 СВ 2 15 км 8/8 750 м
[Cu hum]
+25.8 +14.6 50 +28 +30 жарко 1018.6 1014.4
21 22.03 СВ 2 15 км 4/4 750 м
[Cu hum]
+25.5 +15.2 53 +28 +29 жарко 1017.4 1013.2
00 23.03 СВ 2 15 км ясно +21.0 +17.5 80 +26 +26 душно 1017.7 1013.4 +17.9 +27.3
09 23.03 штиль 0 6000 м слабая морось 10/10 750 м
[Frnb]
+18.3 +17.0 92 +19 +19 1016.6 1012.4
12 23.03 В 3 6000 м слабая морось 10/10 750 м
[Frnb]
+18.7 +15.9 84 +20 +20 1017.9 1013.7 +17.9 +21.0 0.1
15 23.03 В 2 15 км {морось} 10/10 750 м
[Frnb]
+22.6 +18.5 78 +28 +28 душно 1016.2 1013.0
18 23.03 В 2 15 км 6/6 750 м
[Sc diur, vesp]
+25.5 +16.9 59 +29 +33 душно 1014.8 1010.5 0.0
21 23.03 СВ 1 15 км 4/4 750 м
[Sc diur, vesp]
+24.7 +17.2 63 +29 +29 душно 1012.4 1008.2
09 24.03 штиль 0 <100 м туман 10/0
[]
+16.8 +15.4 91 +17 +17 1014.0 1009.7
12 24.03 штиль 0 100 м туман 10/0
[]
+18.6 +16.8 89 +19 +22 1015.4 1011.2 +16.7 +21.0 0.0
15 24.03 СВ 1 15 км {туман} 5/5 750 м
[Sc diur, vesp]
+24.1 +19.3 75 +29 +37 душно 1014.3 1010.1
18 24.03 СВ 2 15 км 8/8 750 м
[Sc diur, vesp]
+27.5 +16.7 52 +31 +33 душно 1012.4 1008.2
21 24.03 СВ 1 15 км 8/8 750 м
[Sc diur, vesp]
+27.1 +17.5 56 +31 +31 душно 1012.1 1007.8
00 25.03 СВ 1 15 км ясно +22.6 +18.4 77 +28 +28 душно 1012.1 1006.8 +18.5 +29.0
09 25.03 штиль 0 <100 м туман 10/0
[]
+19.0 +17.0 88 +20 +20 1014.5 1010.2
12 25.03 штиль 0 100 м туман 10/0
[]
+19.6 +17.3 87 +22 +24 комфорт 1016.8 1012.5 +18.5 +22.6
15 25.03 СВ 2 25 км {туман} 8/8 750 м
[Sc diur, vesp]
+23.7 +19.4 77 +29 +31 душно 1016.8 1012.5
18 25.03 СВ 2 25 км 8/5 750 м
[Sc diur, vesp Ci]
+27.2 +17.5 55 +31 +36 душно 1014.0 1009.8
21 25.03 СВ 1 15 км 9/6 750 м
[Sc diur, vesp Ci]
+26.2 +17.9 60 +31 +31 очень
душно
1012.9 1008.6
00 26.03 СВ 2 15 км 4/4 750 м
[Sc diur, vesp]
+21.7 +17.0 75 +26 +26 душно 1013.8 1009.6 +19.5 +28.0
09 26.03 СВ 2 15 км ясно +18.1 +15.9 87 +19 +19 1014.7 1010.5
12 26.03 СВ 6 15 км 10/10 750 м
[Frnb]
+20.4 +16.8 80 +23 +23 комфорт 1015.8 1011.6 +18.0 +21.7
15 26.03 СВ 4 15 км 8/8 750 м
[Sc diur, vesp]
+24.3 +17.5 66 +28 +30 душно 1014.9 1010.6
18 26.03 СВ 3 15 км 9/9 750 м
[Sc diur, vesp]
+25.0 +16.0 57 +28 +29 жарко 1013.5 1009.3
21 26.03 СВ 2 15 км 10/10 750 м
[Frnb]
+24.1 +16.0 61 +27 +27 жарко 1013.5 1009.3
00 27.03 СВ 5 15 км 10/10 750 м
[Frnb]
+22.0 +17.5 76 +27 +27 душно 1013.1 1008.8 +20.3 +25.5
09 27.03 СВ 3 15 км 5/5 750 м
[Frnb]
+18.7 +16.7 88 +20 +20 1017.0 1012.8
12 27.03 С 2 15 км 8/8 750 м
[Sc diur, vesp]
+21.5 +17.2 77 +26 +26 душно 1017.5 1013.3 +18.6 +22.0
15 27.03 СВ 2 15 км 6/6 750 м
[]
+25.0 +17.9 65 +29 +34 душно 1019.0 1014.8 540
18 27.03 СВ 3 15 км 8/8 750 м
[Sc diur, vesp]
+28.3 +17.5 52 +32 +34 душно 1017.8 1013.6
21 27.03 СВ 2 15 км 4/4 750 м
[Sc diur, vesp]
+26.9 +18.2 59 +32 +32 очень
душно
1016.1 1012.9
00 28.03 СВ 2 15 км ясно +21.6 +18.3 82 +26 +26 душно 1017.2 1012.9 +21.4 +28.6

 

Местоположение метеостанции Las Flores (Аргентина): широта -36.07 долгота -59.10 высота над уровнем моря 38 м.

В архиве по умолчанию представлена погода в Las Flores за последнюю неделю. Архивные данные за месяц целиком и за предыдущие месяцы, начиная с января 2011 года, Вы можете получить, выбрав интересующий диапазон дат из раскрывающегося списка и нажав кнопку "Ввод!".

Внимание! Время в таблицах - всемирное. Для получения местного времени необходимо прибавить поправку, которая в Las Flores равна -3 ч.

Смотрите также архив погоды в соседних городах и на ближайших метеорологических станциях:

Погода в Azul (Аргентина) (110 км)
Погода в Dolores (Аргентина) (127 км)
Погода в Tandil (Аргентина) (130 км)
Погода в Ezeiza (Аргентина) (149 км)
Погода в La Plata (Аргентина) (164 км)
Погода в Buenos Aires (Аргентина) (175 км)
Погода в Bolivar (Аргентина) (178 км)
Погода в Buenos Aires Aeropuerto (Аргентина) (179 км)
Погода в Colonia (Уругвай) (214 км)
Погода в Junin (Аргентина) (236 км)

Пояснения к столбцам:

Ветер - указаны скорость ветра в м/с - средняя за 10 мин, порывы в срок и между сроками (в фигурных скобках) и направление, откуда дует ветер: С - северный, СВ - северо-восточный, В - восточный, ЮВ - юго-восточный, Ю - южный, ЮЗ - юго-западный, З - западный, СЗ - северо-западный.
Видимость - горизонтальная дальность видимости в метрах или километрах. При видимости от 1 до 10 км при отсутствии осадков обычно наблюдается дымка, при ухудшении видимости до 1 км и менее - туман. В сухую погоду видимость может ухудшаться дымом, пылью или мглою.
Явления - указаны атмосферные явления, наблюдавшиеся в срок или в последний час перед сроком; фигурными скобками обозначены явления, наблюдавшиеся между сроками (за 1-3 часа до срока); квадратными скобками обозначены град или гололедные отложения с указанием их диаметра в мм.
Облачность - указаны через наклонную черту общая и нижняя облачность в баллах и высота нижней границы облаков в метрах; квадратными скобками обозначены формы облаков: Ci - перистые, Cs - перисто-слоистые, Cc - перисто-кучевые, Ac - высококучевые, As - высокослоистые, Sc - слоисто-кучевые, Ns - слоисто-дождевые, Cu - кучевые, Cb - кучево-дождевые. Подробнее классификацию облаков см. в Атласе облаков (PDF).
T - Температура воздуха - температура, измеренная на высоте 2 м над землей.
Td - Температура точки росы - температура, при понижении до которой содержащийся в воздухе водяной пар достигнет насыщения.
f - Относительная влажность воздуха - влажноcть воздуха, измеренная на высоте 2 м над землей.
Te - Эффективная температура - температура, которую ощущает одетый по сезону человек в тени. Характеристика душности погоды. При расчете учитывается влияние влажности воздуха и скорости ветра на теплоощущения человека.
Tes - Эффективная температура на солнце - температура, которую ощущает человек, с поправкой на солнечный нагрев. Характеристика знойности погоды. Зависит от высоты солнца над горизонтом, облачности и скорости ветра. Ночью, в пасмурную погоду, а также при ветре 12 м/с и более поправка равна нулю.
P - Атмосферное давление - приведенное к уровню моря атмосферное давление.
Po - Атмосферное давление - измеренное на уровне метеостанции атмосферное давление.
Tmin - Минимальная температура - минимум температуры воздуха на высоте 2 м над землей.
Tmax - Максимальная температура - максимум температуры воздуха на высоте 2 м над землей.
R - Количество осадков - Количество выпавших осадков, мм. При наведении курсора мыши на число - период времени, за который выпало указанное количество осадков.
S - Снежный покров - Высота снежного покрова, см. При наведении курсора мыши на число - состояние снежного покрова и степень покрытия местности в баллах.